This is the latest recevied weather packets stored in our database for station/object HB9KBJ-8. If no packets are shown the sender has not sent any weather packets the latest 10 day(s).
| Time | Temp. | Humidity | Pressure | Rain* | Wind** | Luminosity | Snow |
|---|---|---|---|---|---|---|---|
| 1777958550 | 9.44° C | 88% | 1011.1 hPa | 0 mm | - | 58 W/m² | - |
| 1777958248 | 9.44° C | 88% | 1011.1 hPa | 0 mm | - | 51 W/m² | - |
| 1777957942 | 9.44° C | 88% | 1011 hPa | 0 mm | - | 44 W/m² | - |
| 1777957642 | 9.44° C | 88% | 1011.1 hPa | 0 mm | - | 53 W/m² | - |
| 1777957337 | 9.44° C | 88% | 1011.1 hPa | 0 mm | - | 58 W/m² | - |
| 1777957042 | 9.44° C | 88% | 1011.1 hPa | 0 mm | - | 37 W/m² | - |
| 1777956738 | 9.44° C | 88% | 1011.2 hPa | 0 mm | - | 21 W/m² | - |
| 1777956436 | 9.44° C | 88% | 1011.1 hPa | 0 mm | - | 16 W/m² | - |
| 1777956136 | 9.44° C | 88% | 1011.1 hPa | 0 mm | - | 11 W/m² | - |
| 1777955853 | 9.44° C | 88% | 1011.2 hPa | 0 mm | - | 9 W/m² | - |
| 1777955552 | 9.44° C | 88% | 1011.2 hPa | 0 mm | - | 7 W/m² | - |
| 1777955249 | 8.89° C | 88% | 1011.2 hPa | 0 mm | - | 5 W/m² | - |
| 1777954947 | 8.89° C | 88% | 1011.3 hPa | 0 mm | - | 9 W/m² | - |
| 1777954646 | 8.89° C | 88% | 1011.3 hPa | 0 mm | - | 9 W/m² | - |
| 1777954341 | 8.89° C | 88% | 1011.3 hPa | 0 mm | - | 7 W/m² | - |
| 1777954036 | 8.89° C | 88% | 1011.5 hPa | 0 mm | - | 0 W/m² | - |
| 1777953732 | 8.89° C | 88% | 1011.5 hPa | 0 mm | - | 0 W/m² | - |
| 1777953448 | 8.89° C | 88% | 1011.3 hPa | 0 mm | - | 0 W/m² | - |
| 1777953147 | 8.89° C | 88% | 1011.3 hPa | 0 mm | - | 0 W/m² | - |
| 1777952846 | 8.89° C | 88% | 1011.2 hPa | 0 mm | - | 0 W/m² | - |
| 1777952543 | 8.89° C | 88% | 1011.2 hPa | 0 mm | - | 0 W/m² | - |
| 1777952243 | 8.89° C | 88% | 1011.2 hPa | 0 mm | - | 0 W/m² | - |
| 1777951942 | 8.89° C | 88% | 1011.2 hPa | 0 mm | - | 0 W/m² | - |
| 1777951635 | 8.89° C | 88% | 1011.2 hPa | 0 mm | - | 0 W/m² | - |
| 1777951350 | 8.89° C | 88% | 1011.3 hPa | 0 mm | - | 0 W/m² | - |
* Rain latest hour (hover to see other rain measurements)
** Current wind speed in m/s (hover to see current wind gust speed)